Location: Liberec
(50.7830°N, 15.0500°E)
Time: 00:57:32
(UTC+01:00)

ISS - Visible Passes

Search period start: 19 November 2019 00:00
Search period end: 29 November 2019 00:00
Orbit: 412 x 421 km, 51.6° (Epoch: 19 November)

Date Brightness Start Highest point End Pass type
(mag) Time Alt. Az. Time Alt. Az. Time Alt. Az.
22 Nov -1.3 18:29:08 10° SSW 18:29:57 14° S 18:29:57 14° S visible
23 Nov -1.7 17:41:35 10° S 17:43:35 15° SE 17:43:43 15° SE visible
23 Nov -0.5 19:16:30 10° WSW 19:16:38 11° WSW 19:16:38 11° WSW visible
24 Nov -2.2 18:28:16 10° SW 18:30:19 30° SSW 18:30:19 30° SSW visible
25 Nov -2.6 17:40:10 10° SSW 17:43:08 30° SSE 17:43:56 26° ESE visible
25 Nov -0.6 19:16:17 10° WSW 19:16:51 14° WSW 19:16:51 14° WSW visible
26 Nov -2.0 16:52:17 10° SSW 16:54:51 21° SE 16:57:27 10° E visible
26 Nov -2.8 18:27:53 10° WSW 18:30:24 47° SW 18:30:24 47° SW visible
27 Nov -3.5 17:39:32 10° SW 17:42:48 55° SSE 17:43:54 35° E visible
27 Nov -0.6 19:16:11 10° W 19:16:48 15° W 19:16:48 15° W visible
28 Nov -2.9 16:51:16 10° SW 16:54:25 40° SSE 16:57:22 11° E visible
28 Nov -2.9 18:27:41 10° W 18:30:16 50° W 18:30:16 50° W visible
